Location: Cowley
(49.5667°N, 114.0667°W)
Time: 11:54:59
(UTC+00:00)

Envisat - Pass Details

Date: 05 December 2021
Orbit: 764 x 766 km, 98.2° (Epoch: 25 January)

Event Time Altitude Azimuth Distance (km) Brightness Sun altitude
Rises 13:13:41 0° 11° (N) 3,247 6.2 -19.0°
Reaches altitude 10° 13:16:02 10° 7° (N) 2,316 5.4 -18.6°
Maximum altitude 13:21:02 58° 290° (WNW) 896 3.0 -17.8°
Drops below altitude 10° 13:25:59 10° 212° (SSW) 2,298 5.3 -17.0°
Sets 13:28:18 0° 209° (SSW) 3,220 6.1 -16.7°
